TimeEDT,TemperatureF,Dew PointF,Humidity,Sea Level PressureIn,VisibilityMPH,Wind Direction,Wind SpeedMPH,Gust SpeedMPH,PrecipitationIn,Events,Conditions,WindDirDegrees,DateUTC
12:53 AM,57.9,55.9,93,29.88,10.0,NNW,4.6,-,N/A,,Overcast,340,2013-04-11 04:53:00
1:53 AM,57.0,55.9,96,29.86,10.0,East,3.5,-,N/A,,Clear,100,2013-04-11 05:53:00
2:53 AM,55.9,55.0,97,29.84,10.0,SE,4.6,-,N/A,,Scattered Clouds,140,2013-04-11 06:53:00
3:53 AM,55.0,54.0,96,29.81,10.0,SSE,4.6,-,N/A,,Clear,150,2013-04-11 07:53:00
4:53 AM,55.0,53.1,93,29.80,10.0,SSE,3.5,-,N/A,,Clear,160,2013-04-11 08:53:00
5:53 AM,55.9,53.1,90,29.79,10.0,SSE,4.6,-,N/A,,Clear,150,2013-04-11 09:53:00
6:53 AM,57.0,53.1,87,29.79,10.0,SSE,3.5,-,N/A,,Clear,160,2013-04-11 10:53:00
7:53 AM,59.0,55.0,87,29.80,10.0,South,3.5,-,N/A,,Overcast,170,2013-04-11 11:53:00
8:53 AM,62.1,55.0,78,29.82,10.0,West,3.5,-,N/A,,Scattered Clouds,260,2013-04-11 12:53:00
9:53 AM,63.0,55.9,78,29.83,10.0,NW,5.8,-,N/A,,Mostly Cloudy,320,2013-04-11 13:53:00
10:53 AM,64.9,55.9,73,29.84,10.0,WNW,4.6,-,N/A,,Overcast,300,2013-04-11 14:53:00
11:44 AM,62.6,57.2,82,29.86,2.0,WNW,4.6,-,0.06,Rain,Rain,300,2013-04-11 15:44:00
11:53 AM,62.1,57.9,86,29.84,2.0,Calm,Calm,-,0.09,Rain,Light Rain,0,2013-04-11 15:53:00
12:01 PM,62.6,57.2,82,29.84,10.0,Calm,Calm,-,0.00,Rain,Light Rain,0,2013-04-11 16:01:00
1:53 PM,64.9,59.0,81,29.78,10.0,Calm,Calm,-,N/A,,Overcast,0,2013-04-11 17:53:00
2:53 PM,69.1,60.1,73,29.74,10.0,SE,5.8,-,N/A,,Mostly Cloudy,130,2013-04-11 18:53:00
3:53 PM,73.0,57.0,57,29.71,10.0,SE,5.8,-,N/A,,Mostly Cloudy,130,2013-04-11 19:53:00
4:53 PM,73.9,57.9,57,29.66,10.0,Calm,Calm,-,N/A,,Clear,0,2013-04-11 20:53:00
5:53 PM,75.9,57.0,52,29.65,10.0,SSE,4.6,-,N/A,,Partly Cloudy,150,2013-04-11 21:53:00
6:53 PM,73.0,57.0,57,29.62,10.0,ESE,6.9,-,N/A,,Clear,120,2013-04-11 22:53:00
7:53 PM,72.0,55.9,57,29.59,10.0,ENE,3.5,-,N/A,,Overcast,70,2013-04-11 23:53:00
8:53 PM,66.9,59.0,76,29.55,10.0,NNE,5.8,-,N/A,,Mostly Cloudy,20,2013-04-12 00:53:00
9:53 PM,64.0,57.9,80,29.55,10.0,NE,5.8,-,N/A,,Mostly Cloudy,40,2013-04-12 01:53:00
10:53 PM,63.0,57.9,84,29.59,10.0,West,10.4,25.3,0.00,Rain,Light Rain,280,2013-04-12 02:53:00
11:53 PM,60.1,57.0,90,29.59,5.0,NNW,4.6,-,0.02,Rain,Light Rain,340,2013-04-12 03:53:00